Cloud_Cover
0 0 0 0 0 0 29 83 85 5 7 68 94 86 99 100 100 100 100 100 100 100 100 96 100 100 100 100 100 100 100 100 100 100 100 100 100 100 100 100 100 100 100 100
0 0 0 0 5 0 6 95 30 20 60 82 98 100 100 100 100 100 100 98 94 100 58 82 99 100 92 71 95 100 100 100 100 100 100 100 100 100 100 100 100 100 100 100
4 0 0 0 2 0 23 46 78 76 100 100 100 93 88 94 100 100 28 99 99 66 82 100 59 100 100 100 100 100 100 100 100 100 100 100 100 100 100 100 100 100 100 100
0 0 0 0 0 0 15 20 52 100 94 98 100 100 100 100 100 100 94 98 94 100 69 91 100 100 99 100 100 100 100 100 100 100 100 100 100 100 100 100 100 100 100 100
0 1 0 0 0 0 97 50 81 96 99 100 100 100 100 100 100 100 100 100 100 100 100 97 97 100 100 100 93 100 100 100 100 100 100 100 98 86 100 100 100 100 100 100
2 2 0 0 2 2 72 80 98 100 35 100 100 100 100 100 100 100 100 100 100 100 100 100 100 99 71 91 100 100 100 100 100 100 100 100 100 100 100 100 100 100 100 100
0 1 5 5 4 10 83 89 100 100 42 100 100 99 100 100 100 96 100 100 100 100 100 92 79 97 91 49 13 63 100 100 100 94 96 89 98 100 100 100 100 100 100 100
0 5 5 5 0 0 71 40 100 100 67 99 100 100 55 25 65 71 100 100 100 100 100 100 100 70 33 59 96 44 99 100 100 98 100 82 100 100 100 100 100 100 100 100
0 0 4 5 5 5 24 67 86 100 100 68 87 98 46 53 99 100 100 98 100 100 100 100 94 91 100 100 100 100 100 99 71 100 100 100 100 93 8 35 100 100 100 100
0 0 0 1 7 5 8 99 55 92 96 83 94 99 97 100 100 100 84 96 85 94 99 100 100 100 99 99 100 100 100 90 87 99 100 100 100 99 5 2 67 83 74 76
0 0 0 7 6 6 7 100 50 77 68 73 99 95 99 96 100 100 100 58 100 100 100 100 100 100 100 96 86 100 100 100 100 100 100 100 100 100 78 70 100 100 100 100
0 0 0 0 10 6 6 100 74 96 98 26 7 9 74 94 90 100 86 100 100 100 100 100 100 100 99 100 100 100 100 100 100 100 100 100 100 100 100 94 98 39 14 5
0 0 0 0 2 7 17 98 90 84 98 29 94 59 29 97 20 75 98 100 99 100 100 94 100 100 100 100 100 100 100 100 100 100 100 100 100 100 100 100 91 49 5 5
0 0 0 0 0 15 4 100 100 100 95 98 64 14 95 54 28 28 60 96 100 47 100 99 100 100 100 100 100 100 100 100 100 100 100 100 100 100 100 100 87 9 5 5
5 2 0 0 0 5 25 100 92 100 91 83 14 66 60 99 5 15 62 92 100 100 100 100 99 56 35 100 98 100 100 100 100 100 100 100 100 70 63 15 5 5 5 2
5 1 3 2 0 3 96 71 86 100 98 100 89 76 36 7 6 5 19 94 79 100 98 99 99 100 100 64 100 100 95 99 100 100 100 100 73 6 5 5 5 5 12 51
5 0 2 0 0 15 97 92 85 6 23 91 80 61 84 0 9 42 31 40 91 97 96 85 99 100 20 58 97 100 99 90 83 5 4 19 91 16 5 5 5 4 45 92
5 4 3 3 1 8 34 50 2 2 98 100 100 17 83 2 25 88 13 91 86 86 68 37 81 98 97 43 100 92 33 4 5 5 5 5 5 5 5 14 38 56 56 89
5 5 5 39 53 90 98 4 1 66 61 99 92 98 98 10 28 29 66 38 91 45 92 97 59 79 97 87 31 60 91 100 88 28 5 8 5 5 5 44 77 86 98 100
5 43 56 96 95 21 11 87 66 96 73 100 74 95 90 32 65 69 71 55 81 93 79 10 49 45 95 14 5 7 60 67 9 5 6 52 44 24 5 64 100 100 100 100
5 5 40 58 5 8 100 52 90 87 97 81 60 74 74 14 5 30 38 34 27 68 68 5 58 100 81 36 15 90 94 94 12 5 100 99 48 5 52 86 100 100 100 100
13 7 37 42 57 93 87 82 71 46 98 88 69 99 54 77 6 63 76 65 54 56 25 16 14 99 48 60 52 99 92 75 5 57 100 50 5 37 71 95 100 100 100 100
92 91 100 88 73 90 69 29 5 19 89 42 47 74 50 31 52 55 35 22 72 41 52 65 80 96 5 91 99 73 80 70 5 5 25 16 5 16 46 49 100 100 100 100
77 66 89 16 54 13 5 5 6 70 79 100 99 45 92 46 5 11 38 25 15 34 82 17 77 48 12 50 100 100 100 83 5 5 23 20 14 58 85 81 100 100 100 100
96 100 100 86 99 68 5 5 5 63 67 96 88 74 51 51 41 6 36 58 74 99 56 29 40 42 97 86 94 100 100 66 29 66 99 98 37 6 46 97 83 100 100 100
74 70 100 100 100 74 55 5 8 54 100 100 100 100 98 98 95 96 58 72 99 100 94 72 46 72 29 13 69 92 100 100 100 100 100 100 98 46 63 79 95 100 100 100
100 100 100 100 100 100 69 6 16 60 98 98 100 100 100 100 100 100 100 88 63 91 68 58 80 34 55 43 14 86 100 100 100 100 100 100 100 100 100 95 96 100 100 100